Location: Anuling
(14.1239°N, 120.8922°E)
Time: 04:24:34
(UTC+00:00)

Delta 168 - Pass Details

Date: 14 January 2026
Orbit: 391 x 1872 km, 25.3° (Epoch: 10 February)

Event Time Altitude Azimuth Distance (km) Brightness Sun altitude
Rises 10:33:40 0° 235° (SW) 3,061 8.3 -11.5°
Reaches altitude 10° 10:36:30 10° 229° (SW) 1,923 6.8 -12.1°
Maximum altitude 10:40:33 42° 157° (SSE) 700 3.3 -13.1°
Enters shadow 10:42:26 21° 97° (E) 1,039 3.7 -13.5°
